Regional Weather Roundup
Issued by NWS

Home | Current Version | Previous Version | Text Only | Print | Product List | Glossary On
Versions: 1 2 3 4 5 6 7 8 9 10 11 12 13 14 15 16 17 18 19 20 21 22 23 24 25 26 27 28 29 30 31 32 33 34 35 36 37 38 39 40 41 42 43 44 45 46 47 48 49 50
000
ASPQ40 PGUM 200812
RWRPQ
WEATHER ROUNDUP FOR THE MARIANAS AND MICRONESIA
NATIONAL WEATHER SERVICE TIYAN GU
600 PM CHST SAT SEP 20 2014

GUZ001>004-200900-
MARIANA ISLANDS-

CITY           SKY/WX    TMP DP  RH WIND       PRES   REMARKS
GUAM AIRPORT   PTCLDY    84  77  79 E8        29.78S HX  94
ANDERSEN AFB   MOCLDY    82  77  83 E10       29.78  HX  91
ROTA AIRPORT   MOCLDY    82  77  83 E7        29.79R HX  91
TINIAN AP      MOCLDY    82  77  83 E7        29.77R HX  91
SAIPAN AP      PTCLDY    84  77  79 E8        29.78R HX  94

$$

PMZ161-200900-
REPUBLIC OF PALAU-

CITY           SKY/WX    TMP DP  RH WIND       PRES   REMARKS
KOROR AP       LGT RAIN  75  72  88 E15       29.84R
KOROR WSO      LGT RAIN  75  73  94 N17       29.83R

$$

PMZ171>174-200900-
FEDERATED STATES OF MICRONESIA-

CITY           SKY/WX    TMP DP  RH WIND       PRES   REMARKS
YAP AIRPORT    PTSUNNY   84  77  79 NE10      29.75  HX  94
CHUUK AP       MOCLDY    84  79  84 VRB3      29.75R HX  96
POHNPEI AP     NOT AVBL
POHNPEI WSO    PTCLDY    81  77  89 S3        29.81R
KOSRAE AP      NOT AVBL

$$

PMZ181-200900-
REPUBLIC OF THE MARSHALL ISLANDS-

CITY           SKY/WX    TMP DP  RH WIND       PRES   REMARKS
KWAJALEIN AP   CLEAR     84  73  70 E6        29.79R HX  91
MAJURO AP      NOT AVBL
MAJURO WSO     MOCLDY    82  77  83 SE10      29.79R HX  91

$$




USA.gov is the U.S. government's official web portal to all federal, state and local government web resources and services.